Time,TemperatureF,DewpointF,PressureIn,WindDirection,WindDirectionDegrees,WindSpeedMPH,WindSpeedGustMPH,Humidity,HourlyPrecipIn,Conditions,Clouds,dailyrainin,SoftwareType,DateUTC
2013-01-09 00:13:00,31.7,22.0,30.36,East,100,1.0,1.0,68,0.00,,,0.00,weatherlink.com 1.10,2013-01-09 05:13:00,
2013-01-09 00:28:00,29.8,22.0,30.36,East,100,0.0,1.0,73,0.00,,,0.00,weatherlink.com 1.10,2013-01-09 05:28:00,
2013-01-09 00:43:00,29.5,22.0,30.36,East,101,1.0,1.0,73,0.00,,,0.00,weatherlink.com 1.10,2013-01-09 05:43:00,
2013-01-09 00:58:00,31.3,23.0,30.35,East,101,1.0,2.0,70,0.00,,,0.00,weatherlink.com 1.10,2013-01-09 05:58:00,
2013-01-09 01:28:00,32.9,23.0,30.35,East,100,0.0,1.0,67,0.00,,,0.00,weatherlink.com 1.10,2013-01-09 06:28:00,
2013-01-09 01:43:00,33.2,23.0,30.36,East,101,1.0,3.0,67,0.00,,,0.00,weatherlink.com 1.10,2013-01-09 06:43:00,
2013-01-09 01:58:00,32.9,23.0,30.36,East,100,0.0,2.0,67,0.00,,,0.00,weatherlink.com 1.10,2013-01-09 06:58:00,
2013-01-09 02:13:00,30.2,22.0,30.36,East,100,1.0,1.0,72,0.00,,,0.00,weatherlink.com 1.10,2013-01-09 07:13:00,
2013-01-09 02:28:00,28.9,22.0,30.36,East,100,0.0,1.0,74,0.00,,,0.00,weatherlink.com 1.10,2013-01-09 07:28:00,
2013-01-09 02:43:00,28.6,22.0,30.36,East,101,0.0,1.0,75,0.00,,,0.00,weatherlink.com 1.10,2013-01-09 07:43:00,
2013-01-09 02:58:00,28.9,22.0,30.35,East,101,1.0,1.0,75,0.00,,,0.00,weatherlink.com 1.10,2013-01-09 07:58:00,
2013-01-09 03:13:00,28.9,22.0,30.34,East,101,0.0,1.0,75,0.00,,,0.00,weatherlink.com 1.10,2013-01-09 08:13:00,
2013-01-09 03:28:00,28.0,21.0,30.34,East,101,0.0,1.0,76,0.00,,,0.00,weatherlink.com 1.10,2013-01-09 08:28:00,
2013-01-09 03:43:00,27.1,21.0,30.35,ESE,102,0.0,1.0,78,0.00,,,0.00,weatherlink.com 1.10,2013-01-09 08:43:00,
2013-01-09 03:58:00,26.4,21.0,30.34,East,100,0.0,1.0,80,0.00,,,0.00,weatherlink.com 1.10,2013-01-09 08:58:00,
2013-01-09 04:13:00,26.1,21.0,30.34,East,101,0.0,0.0,81,0.00,,,0.00,weatherlink.com 1.10,2013-01-09 09:13:00,
2013-01-09 04:28:00,26.2,21.0,30.33,ESE,102,0.0,1.0,81,0.00,,,0.00,weatherlink.com 1.10,2013-01-09 09:28:00,
2013-01-09 04:43:00,26.3,21.0,30.33,East,100,0.0,1.0,81,0.00,,,0.00,weatherlink.com 1.10,2013-01-09 09:43:00,
2013-01-09 04:58:00,26.1,21.0,30.34,ESE,102,0.0,0.0,81,0.00,,,0.00,weatherlink.com 1.10,2013-01-09 09:58:00,
2013-01-09 05:13:00,25.3,21.0,30.35,East,101,0.0,0.0,82,0.00,,,0.00,weatherlink.com 1.10,2013-01-09 10:13:00,
2013-01-09 05:28:00,24.7,21.0,30.34,East,101,0.0,0.0,84,0.00,,,0.00,weatherlink.com 1.10,2013-01-09 10:28:00,
2013-01-09 05:43:00,25.1,21.0,30.35,ESE,102,1.0,1.0,84,0.00,,,0.00,weatherlink.com 1.10,2013-01-09 10:43:00,
2013-01-09 05:58:00,25.6,21.0,30.36,ESE,102,0.0,1.0,83,0.00,,,0.00,weatherlink.com 1.10,2013-01-09 10:58:00,
2013-01-09 06:13:00,24.4,20.0,30.36,ESE,102,1.0,1.0,84,0.00,,,0.00,weatherlink.com 1.10,2013-01-09 11:13:00,
2013-01-09 06:28:00,24.1,20.0,30.36,ESE,102,0.0,1.0,85,0.00,,,0.00,weatherlink.com 1.10,2013-01-09 11:28:00,
2013-01-09 06:43:00,24.2,21.0,30.36,East,101,0.0,1.0,86,0.00,,,0.00,weatherlink.com 1.10,2013-01-09 11:43:00,
2013-01-09 06:58:00,24.1,21.0,30.37,ESE,102,0.0,1.0,86,0.00,,,0.00,weatherlink.com 1.10,2013-01-09 11:58:00,
2013-01-09 07:13:00,23.6,20.0,30.38,East,101,0.0,0.0,87,0.00,,,0.00,weatherlink.com 1.10,2013-01-09 12:13:00,
2013-01-09 07:28:00,23.7,20.0,30.38,East,101,0.0,1.0,87,0.00,,,0.00,weatherlink.com 1.10,2013-01-09 12:28:00,
2013-01-09 07:43:00,24.3,21.0,30.38,ESE,102,0.0,1.0,87,0.00,,,0.00,weatherlink.com 1.10,2013-01-09 12:43:00,
2013-01-09 07:58:00,24.0,20.0,30.38,East,101,0.0,0.0,86,0.00,,,0.00,weatherlink.com 1.10,2013-01-09 12:58:00,
2013-01-09 08:13:00,24.1,21.0,30.36,East,101,0.0,0.0,87,0.00,,,0.00,weatherlink.com 1.10,2013-01-09 13:13:00,
2013-01-09 08:28:00,24.6,21.0,30.36,East,101,0.0,1.0,87,0.00,,,0.00,weatherlink.com 1.10,2013-01-09 13:28:00,
2013-01-09 08:43:00,26.0,22.0,30.36,ESE,102,0.0,0.0,85,0.00,,,0.00,weatherlink.com 1.10,2013-01-09 13:43:00,
2013-01-09 08:58:00,26.8,23.0,30.36,East,101,0.0,0.0,84,0.00,,,0.00,weatherlink.com 1.10,2013-01-09 13:58:00,
2013-01-09 09:14:00,26.8,22.0,30.36,East,101,0.0,0.0,82,0.00,,,0.00,weatherlink.com 1.10,2013-01-09 14:14:00,
2013-01-09 09:29:00,26.5,22.0,30.35,ESE,102,0.0,1.0,82,0.00,,,0.00,weatherlink.com 1.10,2013-01-09 14:29:00,
2013-01-09 09:44:00,26.5,22.0,30.35,East,101,0.0,1.0,82,0.00,,,0.00,weatherlink.com 1.10,2013-01-09 14:44:00,
2013-01-09 09:59:00,26.6,21.0,30.33,ESE,102,0.0,1.0,80,0.00,,,0.00,weatherlink.com 1.10,2013-01-09 14:59:00,
2013-01-09 10:14:00,27.8,22.0,30.32,East,100,0.0,0.0,79,0.00,,,0.00,weatherlink.com 1.10,2013-01-09 15:14:00,
2013-01-09 10:29:00,29.6,23.0,30.32,East,100,0.0,1.0,76,0.00,,,0.00,weatherlink.com 1.10,2013-01-09 15:29:00,
2013-01-09 10:44:00,31.4,24.0,30.31,East,101,1.0,1.0,75,0.00,,,0.00,weatherlink.com 1.10,2013-01-09 15:44:00,
2013-01-09 10:59:00,32.4,25.0,30.31,East,100,1.0,1.0,74,0.00,,,0.00,weatherlink.com 1.10,2013-01-09 15:59:00,
2013-01-09 11:14:00,32.3,25.0,30.28,East,100,1.0,1.0,74,0.00,,,0.00,weatherlink.com 1.10,2013-01-09 16:14:00,
2013-01-09 11:29:00,32.0,24.0,30.26,East,101,1.0,1.0,73,0.00,,,0.00,weatherlink.com 1.10,2013-01-09 16:29:00,
2013-01-09 11:44:00,31.9,25.0,30.24,East,101,1.0,1.0,74,0.00,,,0.00,weatherlink.com 1.10,2013-01-09 16:44:00,
2013-01-09 11:59:00,32.2,24.0,30.23,East,100,1.0,2.0,73,0.00,,,0.00,weatherlink.com 1.10,2013-01-09 16:59:00,
2013-01-09 12:14:00,33.2,25.0,30.20,East,101,1.0,1.0,71,0.00,,,0.00,weatherlink.com 1.10,2013-01-09 17:14:00,
2013-01-09 12:29:00,33.7,25.0,30.19,East,100,0.0,1.0,71,0.00,,,0.00,weatherlink.com 1.10,2013-01-09 17:29:00,
2013-01-09 12:44:00,34.0,25.0,30.16,East,101,0.0,1.0,69,0.00,,,0.00,weatherlink.com 1.10,2013-01-09 17:44:00,
2013-01-09 12:59:00,34.7,25.0,30.15,ESE,102,1.0,1.0,68,0.00,,,0.00,weatherlink.com 1.10,2013-01-09 17:59:00,
2013-01-09 13:14:00,34.5,25.0,30.16,East,101,1.0,2.0,68,0.00,,,0.00,weatherlink.com 1.10,2013-01-09 18:14:00,
2013-01-09 13:29:00,34.6,25.0,30.17,East,100,1.0,2.0,69,0.00,,,0.00,weatherlink.com 1.10,2013-01-09 18:29:00,
2013-01-09 13:44:00,34.3,25.0,30.16,East,101,1.0,3.0,68,0.00,,,0.00,weatherlink.com 1.10,2013-01-09 18:44:00,
2013-01-09 13:59:00,33.9,25.0,30.14,East,100,2.0,4.0,69,0.00,,,0.00,weatherlink.com 1.10,2013-01-09 18:59:00,
2013-01-09 14:14:00,33.5,25.0,30.13,East,100,1.0,4.0,70,0.00,,,0.00,weatherlink.com 1.10,2013-01-09 19:14:00,
2013-01-09 14:29:00,33.1,25.0,30.13,East,100,1.0,4.0,71,0.00,,,0.00,weatherlink.com 1.10,2013-01-09 19:29:00,
2013-01-09 14:44:00,32.7,24.0,30.10,East,100,1.0,2.0,71,0.00,,,0.00,weatherlink.com 1.10,2013-01-09 19:44:00,
2013-01-09 14:59:00,32.7,25.0,30.09,East,101,0.0,1.0,72,0.00,,,0.00,weatherlink.com 1.10,2013-01-09 19:59:00,
2013-01-09 15:14:00,32.7,25.0,30.08,East,100,0.0,1.0,73,0.00,,,0.00,weatherlink.com 1.10,2013-01-09 20:14:00,
2013-01-09 15:29:00,32.8,25.0,30.05,East,100,0.0,1.0,74,0.00,,,0.00,weatherlink.com 1.10,2013-01-09 20:29:00,
2013-01-09 15:44:00,33.0,25.0,30.04,East,101,1.0,1.0,73,0.00,,,0.00,weatherlink.com 1.10,2013-01-09 20:44:00,
2013-01-09 15:59:00,33.0,26.0,30.02,ESE,102,0.0,1.0,75,0.00,,,0.00,weatherlink.com 1.10,2013-01-09 20:59:00,
2013-01-09 16:14:00,33.1,26.0,30.03,East,101,1.0,1.0,74,0.00,,,0.00,weatherlink.com 1.10,2013-01-09 21:14:00,
2013-01-09 16:29:00,33.5,27.0,30.03,East,101,0.0,1.0,76,0.00,,,0.00,weatherlink.com 1.10,2013-01-09 21:29:00,
2013-01-09 16:44:00,34.2,27.0,30.00,East,100,0.0,2.0,76,0.00,,,0.00,weatherlink.com 1.10,2013-01-09 21:44:00,
2013-01-09 16:59:00,34.5,27.0,29.98,ESE,102,0.0,1.0,75,0.00,,,0.00,weatherlink.com 1.10,2013-01-09 21:59:00,
2013-01-09 17:15:00,34.8,28.0,29.97,East,101,0.0,1.0,76,0.00,,,0.00,weatherlink.com 1.10,2013-01-09 22:15:00,
2013-01-09 17:30:00,35.0,28.0,29.96,East,101,0.0,1.0,76,0.00,,,0.00,weatherlink.com 1.10,2013-01-09 22:30:00,
2013-01-09 17:45:00,35.4,29.0,29.96,East,100,0.0,2.0,76,0.00,,,0.00,weatherlink.com 1.10,2013-01-09 22:45:00,
2013-01-09 18:00:00,35.3,29.0,29.96,East,100,0.0,2.0,77,0.00,,,0.00,weatherlink.com 1.10,2013-01-09 23:00:00,
2013-01-09 18:15:00,34.9,29.0,29.96,East,100,1.0,3.0,78,0.00,,,0.00,weatherlink.com 1.10,2013-01-09 23:15:00,
2013-01-09 18:30:00,34.1,29.0,29.96,East,100,1.0,2.0,80,0.00,,,0.00,weatherlink.com 1.10,2013-01-09 23:30:00,
2013-01-09 18:45:00,33.3,28.0,29.95,East,100,1.0,1.0,81,0.00,,,0.00,weatherlink.com 1.10,2013-01-09 23:45:00,
2013-01-09 19:00:00,32.5,28.0,29.96,East,100,0.0,1.0,83,0.00,,,0.00,weatherlink.com 1.10,2013-01-10 00:00:00,
2013-01-09 19:15:00,31.8,28.0,29.95,East,100,0.0,1.0,84,0.00,,,0.00,weatherlink.com 1.10,2013-01-10 00:15:00,
2013-01-09 19:30:00,31.2,28.0,29.95,East,101,0.0,0.0,86,0.00,,,0.00,weatherlink.com 1.10,2013-01-10 00:30:00,
2013-01-09 19:45:00,30.7,28.0,29.95,East,101,0.0,0.0,89,0.00,,,0.00,weatherlink.com 1.10,2013-01-10 00:45:00,
2013-01-09 20:00:00,31.4,29.0,29.95,East,101,0.0,0.0,90,0.00,,,0.00,weatherlink.com 1.10,2013-01-10 01:00:00,
2013-01-09 20:15:00,31.4,29.0,29.95,East,101,0.0,1.0,89,0.00,,,0.00,weatherlink.com 1.10,2013-01-10 01:15:00,
2013-01-09 20:30:00,31.0,29.0,29.95,East,100,0.0,1.0,90,0.00,,,0.00,weatherlink.com 1.10,2013-01-10 01:30:00,
2013-01-09 20:45:00,31.1,29.0,29.95,East,100,0.0,1.0,91,0.00,,,0.00,weatherlink.com 1.10,2013-01-10 01:45:00,
2013-01-09 21:00:00,31.0,29.0,29.95,East,100,0.0,0.0,92,0.00,,,0.00,weatherlink.com 1.10,2013-01-10 02:00:00,
2013-01-09 21:15:00,30.8,29.0,29.96,East,100,1.0,1.0,91,0.00,,,0.00,weatherlink.com 1.10,2013-01-10 02:15:00,
2013-01-09 21:30:00,31.2,29.0,29.95,East,100,0.0,1.0,93,0.00,,,0.00,weatherlink.com 1.10,2013-01-10 02:30:00,
2013-01-09 21:45:00,32.9,31.0,29.96,East,101,0.0,1.0,92,0.00,,,0.00,weatherlink.com 1.10,2013-01-10 02:45:00,
2013-01-09 22:00:00,34.3,31.0,29.96,East,101,1.0,1.0,87,0.00,,,0.00,weatherlink.com 1.10,2013-01-10 03:00:00,
2013-01-09 22:15:00,35.6,31.0,29.96,East,100,0.0,3.0,83,0.00,,,0.00,weatherlink.com 1.10,2013-01-10 03:15:00,
2013-01-09 22:30:00,36.0,31.0,29.97,East,101,0.0,1.0,81,0.00,,,0.00,weatherlink.com 1.10,2013-01-10 03:30:00,
2013-01-09 22:45:00,36.9,31.0,29.97,East,101,1.0,3.0,78,0.00,,,0.00,weatherlink.com 1.10,2013-01-10 03:45:00,
2013-01-09 23:00:00,37.3,30.0,29.97,East,101,1.0,2.0,75,0.00,,,0.00,weatherlink.com 1.10,2013-01-10 04:00:00,
2013-01-09 23:15:00,38.0,30.0,29.98,East,101,1.0,4.0,72,0.00,,,0.00,weatherlink.com 1.10,2013-01-10 04:15:00,
2013-01-09 23:30:00,38.7,29.0,29.98,East,100,0.0,3.0,68,0.00,,,0.00,weatherlink.com 1.10,2013-01-10 04:30:00,
2013-01-09 23:45:00,39.6,29.0,29.98,ESE,105,2.0,9.0,66,0.00,,,0.00,weatherlink.com 1.10,2013-01-10 04:45:00,